This is the latest recevied weather packets stored in our database for station/object DC5DM-13. If no packets are shown the sender has not sent any weather packets the latest 10 day(s).
| Time | Temp. | Humidity | Pressure | Rain* | Wind** | Luminosity | Snow |
|---|---|---|---|---|---|---|---|
| 1777554045 | 17.78° C | 27% | 1028.2 hPa | 0 mm | - | - | - |
| 1777553477 | 17.78° C | 27% | 1028.3 hPa | 0 mm | - | - | - |
| 1777552846 | 17.22° C | 27% | 1028.2 hPa | 0 mm | - | - | - |
| 1777552266 | 17.22° C | 27% | 1028.3 hPa | 0 mm | - | - | - |
| 1777551626 | 16.67° C | 28% | 1028.5 hPa | 0 mm | - | - | - |
| 1777551056 | 16.67° C | 27% | 1028.5 hPa | 0 mm | - | - | - |
| 1777550431 | 16.67° C | 27% | 1028.5 hPa | 0 mm | - | - | - |
| 1777549856 | 16.11° C | 29% | 1028.4 hPa | 0 mm | - | - | - |
| 1777549226 | 16.67° C | 27% | 1028.6 hPa | 0 mm | - | - | - |
| 1777548656 | 15.56° C | 30% | 1028.8 hPa | 0 mm | - | - | - |
| 1777548026 | 15.56° C | 28% | 1028.9 hPa | 0 mm | - | - | - |
| 1777547457 | 15.56° C | 29% | 1029 hPa | 0 mm | - | - | - |
| 1777546826 | 15° C | 30% | 1029.1 hPa | 0 mm | - | - | - |
| 1777546257 | 15° C | 32% | 1029.2 hPa | 0 mm | - | - | - |
| 1777545625 | 15° C | 30% | 1029.3 hPa | 0 mm | - | - | - |
| 1777545056 | 14.44° C | 30% | 1029.3 hPa | 0 mm | - | - | - |
| 1777544426 | 14.44° C | 31% | 1029.3 hPa | 0 mm | - | - | - |
| 1777543856 | 14.44° C | 32% | 1029.5 hPa | 0 mm | - | - | - |
| 1777543226 | 13.89° C | 32% | 1029.5 hPa | 0 mm | - | - | - |
| 1777542656 | 13.33° C | 32% | 1029.5 hPa | 0 mm | - | - | - |
| 1777542026 | 13.33° C | 32% | 1029.5 hPa | 0 mm | - | - | - |
| 1777541451 | 13.33° C | 33% | 1029.6 hPa | 0 mm | - | - | - |
| 1777540880 | 12.22° C | 30% | 1029.7 hPa | 0 mm | - | - | - |
| 1777540250 | 12.78° C | 32% | 1029.7 hPa | 0 mm | - | - | - |
| 1777539675 | 12.78° C | 32% | 1029.9 hPa | 0 mm | - | - | - |
* Rain latest hour (hover to see other rain measurements)
** Current wind speed in m/s (hover to see current wind gust speed)